Regional Weather Roundup
Issued by NWS Wakefield, VA

Home | Current Version | Previous Version | Graphics & Text | Print | Product List | Glossary On
Versions: 1 2 3 4 5 6 7 8 9 10 11 12 13 14 15 16 17 18 19 20 21 22 23 24 25 26 27
000
ASUS41 KAKQ 271115
RWRAKQ

REGIONAL WEATHER ROUNDUP
NATIONAL WEATHER SERVICE WAKEFIELD VA
700 AM EDT TUE SEP 27 2016

Note: "fair" indicates few or no clouds below 12,000 feet with no
significant weather and/or obstructions to visibility. * = Denotes
station may not report precipitation (e.g., rain,snow,etc.),
thunder or fog.

VAZ042-051-052>054-056-271200-
NORTHERN VIRGINIA

CITY           SKY/WX    TMP DP  RH WIND       PRES   REMARKS
WASH NATIONAL  CLOUDY    68  67  96 N8        29.95S
DULLES         CLOUDY    65  62  90 N8        29.96S
FORT BELVOIR   CLOUDY    66  65  96 VRB2      29.94S
QUANTICO       CLOUDY    68  66  93 CALM      29.95R
FREDERICKSBRG* CLOUDY    67  67 100 CALM      29.94R FOG
STAFFORD*      CLOUDY    65  65 100 CALM      29.99R FOG
WARRENTON      CLOUDY    65  60  85 N9        29.95R
CULPEPER*      CLOUDY    66  66 100 CALM      29.97R FOG
MANASSAS*      CLOUDY    64  64 100 N6        29.95S
LEESBURG*      MOCLDY    64  63  94 N6        29.97S
WINCHESTER     MOCLDY    57  52  82 NW5       29.98R
FRONT ROYAL*   CLOUDY    59  55  88 NE5       29.97R
LURAY*         FAIR      61  61 100 NE3       29.97R
$$

VAZ048-049-060>072-079>083-271200-
CENTRAL AND SOUTH CENTRAL VIRGINIA

CITY           SKY/WX    TMP DP  RH WIND       PRES   REMARKS
RICHMOND       CLOUDY    67  66  97 SW6       29.95R
CHESTERFIELD*  FAIR      68  54  60 CALM      29.97R
PETERSBURG*    CLOUDY   N/A N/A N/A CALM      29.96S
HANOVER        LGT RAIN  68  65  90 SW3       29.97R
TAPPAHANNOCK*  CLOUDY    67  67 100 CALM      29.95S
QUINTON*       FAIR      67  67 100 CALM      29.94S
CHARLOTTSVILLE FOG       66  64  93 CALM      29.95R VSB 1/2
GORDONSVILLE*  NOT AVBL
ORANGE*          N/A     66  66 100 CALM      29.97R FOG
LOUISA*        CLOUDY    70  68  94 CALM      29.94R FOG
BUMPASS*       CLOUDY    65  65 100 CALM      29.95R
FARMVILLE*     LGT RAIN  68  68 100 CALM      29.94S
CREWE*         CLOUDY    67  67 100 CALM      29.95S
FORT PICKETT*  CLOUDY    67  66  97 SW6       29.96S
CHASE CITY*    CLOUDY    67  65  94 CALM      29.97S
CLARKSVILLE*   PTSUNNY   64  64 100 CALM      29.97S
SOUTH HILL*    CLOUDY    66  66 100 CALM      30.03R
LAWRENCEVILLE* FAIR      66  66 100 CALM      29.97R
EMPORIA*       CLOUDY    66  64  94 CALM      29.98R
$$

VAZ088>098-271200-
SOUTHEAST VIRGINIA

CITY           SKY/WX    TMP DP  RH WIND       PRES   REMARKS
NORFOLK        CLOUDY    72  65  78 SW8       29.96R
VIRGINIA BEACH CLOUDY    71  64  78 SW7       29.96R
NORFOLK NAVAL  CLOUDY    73  66  78 SW7       29.98R
WEST POINT*    CLOUDY    68  67  94 S3        29.96S
SALUDA*        CLOUDY    68  68 100 CALM      29.95S
NEWPORT NEWS   CLOUDY    71  68  90 SW7       29.96R
LANGLEY AFB    CLOUDY    72  67  86 SW7       29.95S
FORT EUSTIS    MOCLDY    71  67  85 VRB3      29.94R
WILLIAMSBURG*  CLOUDY    72  66  83 W3        29.97R
HR EXEC AP*    PTSUNNY   70  64  83 CALM      29.98S
FRANKLIN*      CLOUDY    69  66  89 S3        29.97R
US460-WAKEFLD  CLOUDY    69  65  86 CALM      29.96R
$$

VAZ020-022-025-037-045-271200-
WEST CENTRAL AND SOUTHWEST VIRGINIA

CITY           SKY/WX    TMP DP  RH WIND       PRES   REMARKS
STAUNTON*      MOCLDY    61  61 100 CALM      30.01R FOG
WAYNESBORO*    FAIR      62  61  96 CALM      30.00R
HOT SPRINGS VA CLOUDY    45  45 100 W10       30.04S FOG
LYNCHBURG      CLOUDY    65  65 100 CALM      29.98R
DANVILLE       CLOUDY    67  66  97 SW3       29.97R
SOUTH BOSTON*  CLOUDY    67  65  95 CALM      29.97S
MARTINSVILLE   CLOUDY    66  65  95 CALM      30.00S
ROANOKE        CLOUDY    66  65  96 NE3       30.00R
BLACKSBURG     CLOUDY    63  62  96 W3        30.05R
DUBLIN*        CLOUDY    64  62  96 N8        30.04R
MARION*        CLOUDY    64  62  93 W5        30.06R
HILLSVILLE*    FOG       63  63 100 CALM      30.03R VSB 3/4
RICHLANDS*     CLOUDY    55  55 100 NW5       30.07R FOG
WISE*          FOG       55  55 100 N6        30.08S VSB<1/4
ABINGDON*      CLOUDY    65  63  92 CALM      30.03S
$$

MDZ021>025-VAZ099-100-271200-
SOUTHERN MARYLAND AND THE DELMARVA PENINSULA

CITY           SKY/WX    TMP DP  RH WIND       PRES   REMARKS
PATUXENT RIVER LGT RAIN  67  65  93 CALM      29.93F
BAY BRIDGE APT CLOUDY    66  66 100 MISG      29.94R
LEONARDTOWN    CLOUDY    64  64 100 CALM      29.96R
DOVER          LGT RAIN  67  67 100 W3        29.92S
GEORGETOWN     LGT RAIN  68  67  96 CALM      29.94F
EASTON         LGT RAIN  68  66  94 CALM      29.98S
CAMBRIDGE      CLOUDY    66  64  94 CALM      29.93F
SALISBURY      LGT RAIN  69  68  96 SW3       29.94S
OCEAN CITY     HVY RAIN  71  67  87 W8G18     29.95S
WALLOPS ISLAND LGT RAIN  71  69  93 W9        29.97R
ACCOMACK*      RAIN      71  67  84 W3        29.96R
$$

NCZ012>017-030>032-271200-
NORTH CENTRAL AND EASTERN NORTH CAROLINA

CITY           SKY/WX    TMP DP  RH WIND       PRES   REMARKS
ROANOKE RAPIDS PTSUNNY   64  64 100 CALM      29.97R FOG
RALEIGH        CLOUDY    67  66  97 CALM      29.98R
ELIZABETH CITY CLOUDY    70  66  87 S3        29.97S
AHOSKIE*       RAIN      67  66  98 CALM      29.97S
EDENTON*       CLOUDY    74  67  78 S8        29.98S
CURRITUCK*     CLOUDY    70  68  93 CALM      29.98R
KILL DEVIL HLS CLOUDY    74  71  89 S3        29.97R
MANTEO         CLOUDY    76  69  79 SW10      29.98S
CAPE HATTERAS  PTCLDY    77  67  71 S9        29.97S
TARBORO*       FAIR      68  67  97 CALM      29.98R
GOLDSBORO      CLOUDY    70  70 100 SE3       29.94F
WASHINGTON     CLOUDY    68  67  96 CALM      29.97S
GREENVILLE     MOCLDY    70  68  94 S3        29.98F
NEW BERN       CLOUDY    69  67  93 CALM      29.99R
WILMINGTON     CLOUDY    70  68  93 NE3       29.97R
$$

VAZ048-271200-
ELSEWHERE

CITY           SKY/WX    TMP DP  RH WIND       PRES   REMARKS
HARRISBURG PA  CLOUDY    59  59 100 NW5       29.94S FOG
BALTIMORE      CLOUDY    65  63  93 W5        29.95R FOG
ANNAPOLIS      CLOUDY    68  66  93 NW5       29.94R
ANDREWS AFB    CLOUDY    66  65  96 N6        29.94R
PHILADELPHIA   CLOUDY    67  63  87 W9        29.94R
HENDERSON NC   CLOUDY    64  63  96 CALM      29.97S
GREENSBORO     CLOUDY    67  67 100 SW6       29.98R
ROCKY MOUNT    PTCLDY    67  67 100 CALM      29.97R
$$

VAZ100-271200-
MARINE

STATION/POSITION TIME  TEMP    WIND        PRES    WAVE   SWELL
                       AIR SEA DIR/SP/G            HT/PER HT/PER
                 (UTC) (F)     (DEG/KT/KT) (MB)    (FT/S) (FT/S)
BRANDYWINE LGT   1000   70     250/ 17/ 19   N/A
CAPE MAY NJ      1000   70 72  260/ 15/ 16 1013.0S
LEWES DE         1000   69 72  220/  3/  5 1013.6R
OCEAN-CITY-INLET 1000   72 73  240/  9/ 12 1014.3R
WACHAPREAGUE VA  1000   71 73  250/  3/  5 1014.2R
THOMAS POINT MD  1100   67 73  290/  9/ 10 1015.2R
GOOSES REEF MD   1000   69 75  310/  6/  8 1014.1F   1/ 2
COVE POINT MD    1000   68     280/  5/  9 1014.2F
SOLOMONS ISLAND  1000   68 76  290/  3/  6   N/A
BISHOPS HEAD MD  1000   71 69  250/ 14/ 17 1014.0R
PINEY POINT MD   1000          290/  6/  8   N/A
POTOMAC MD       1000   70 75  250/ 12/ 16 1012.8F   1/ 2
CAMBRIDGE MD     1000   68 74  260/  4/  7 1012.9S
LEWISETTA VA     1000   68 73  250/  7/  9 1013.2F
RAPPAHANNOCK LGT 1000          250/ 12/ 13 1014.6R
STINGRAY PT      1000   72 76  190/ 12/ 14 1014.1F   1/ 3
YORK RVR RNG VA  1000   73     270/ 15/ 17 1013.4S
YORKTOWN VA      1000   72 76  240/ 10/ 13 1013.6S
JAMESTOWN VA     1000   71 76  220/  8/ 10   N/A     0
DOMINION TERM VA 1000   73     240/  8/ 10 1014.4R
KIPTOPEKE VA     1000      75  210/ 13/ 16   N/A
CHES BAY BRIDGE  1000   74 76  180/ 12/ 15 1013.8F
CAPE HENRY VA    1000   72     200/  7/ 10   N/A
WILLOUBY STN VA  1000   73     240/ 11/ 14   N/A
CAPE HENRY BUOY  1012      76                N/A     3/ 5
1ST LANDING BUOY 1000   74 76  220/ 14/ 16 1013.8S   2/ 3
CAPE CHARLES BUO 1056      76                N/A     3/ 5
OFFSHORE WE BUOY 1051      75                N/A     4/ 5   2/11
64NM E OF VA BCH 1050   75 74  180/ 14/ 17 1014.4R   4/ 5   2/13
DUCK PIER NC     1000   76 76  200/  7/ 10 1014.3R
44056 DUCK FRF   1011      76                N/A     3/13   2/13
OREGON INLET NC  1000   75 76  150/  6/  8 1014.9F
HATTERAS NC      1000   78 78  150/  8/ 11 1014.7F
DIAMOND SHLS NC  1050   79 84  160/ 12/ 16 1014.6S   4/ 9   2/ 9
CAPE LOOKOUT NC  1000   79     130/  9/ 10 1014.3F
$$




USA.gov is the U.S. government's official web portal to all federal, state and local government web resources and services.